PBO Station Position Time Series. Reference Frame : NAM14
Format Version,1.1.0
4-character ID,UCLU
Station name,Ucluelet
Begin Date, 2006-06-01
End Date, 2019-10-07
Release Date, 2019-10-08
Reference position, 48.9256376080 North Latitude, -125.5416405254 East Longitude, 10.08414 meters elevation,
Date, North (mm), East (mm), Vertical (mm), North Std. Deviation (mm), East Std. Deviation (mm),              Vertical Std. Deviation (mm), Quality,
2006-06-01,0.00, 0.00, 0.00, 2.42, 1.67, 7.61, repro,
2006-06-02,1.67, 0.70, 1.46, 2.40, 1.63, 7.46, repro,
2006-06-03,1.99, 0.94, 4.06, 2.42, 1.63, 7.52, repro,
2006-06-04,1.37, 0.09, 1.72, 2.44, 1.64, 7.42, repro,
2006-06-05,1.10, -0.61, 1.95, 2.38, 1.62, 7.40, repro,
2006-06-06,-0.29, -0.13, -1.37, 2.37, 1.61, 7.37, repro,
2006-06-07,1.97, 0.53, -4.92, 2.48, 1.66, 7.60, repro,
2006-06-08,2.60, -0.69, -9.57, 2.48, 1.70, 7.73, repro,
2006-06-09,2.23, 0.60, 1.40, 2.32, 1.58, 7.22, repro,
2006-06-10,2.07, -0.64, 2.71, 2.32, 1.59, 7.20, repro,
2006-06-11,0.82, 0.24, -1.28, 2.32, 1.58, 7.21, repro,
2006-06-12,0.51, 0.26, 3.58, 2.32, 1.59, 7.24, repro,
2006-06-13,2.25, 0.25, -4.49, 2.37, 1.63, 7.36, repro,
2006-06-14,1.24, -0.05, -0.91, 2.30, 1.59, 7.20, repro,
2006-06-15,-0.17, 0.51, 8.72, 2.53, 1.69, 7.61, repro,
2006-06-16,-0.66, 0.35, 1.49, 2.36, 1.61, 7.31, repro,
2006-06-17,1.41, 0.42, 5.20, 2.30, 1.57, 7.16, repro,
2006-06-18,-0.30, 0.53, 8.75, 2.34, 1.63, 7.36, repro,
2006-06-19,1.49, 1.39, -6.07, 2.53, 1.74, 7.81, repro,
2006-06-20,1.85, -0.07, 4.11, 2.53, 1.77, 8.08, repro,
2006-06-21,0.57, 0.03, 0.07, 2.73, 1.87, 8.40, repro,
2006-06-22,0.23, -0.30, -2.03, 2.37, 1.63, 7.39, repro,
2006-06-23,1.50, -0.21, -4.29, 2.37, 1.66, 7.39, repro,
2006-06-24,0.56, 0.35, 1.09, 2.37, 1.65, 7.50, repro,
2006-06-25,1.61, 0.68, -6.11, 2.42, 1.70, 7.65, repro,
2006-06-26,1.28, 0.73, -1.92, 2.36, 1.65, 7.43, repro,
2006-06-27,-0.46, -0.24, 3.00, 2.44, 1.69, 7.52, repro,
2006-06-28,-0.33, -0.95, 6.73, 2.37, 1.63, 7.35, repro,
2006-06-29,-0.67, -0.14, 2.64, 2.42, 1.70, 7.89, repro,
2006-06-30,0.63, -0.07, 5.98, 2.40, 1.65, 7.67, repro,
2006-07-01,-0.09, -0.68, 1.74, 2.30, 1.59, 7.38, repro,
2006-07-02,0.85, -0.08, 5.30, 2.35, 1.65, 7.64, repro,
2006-07-03,0.33, -0.83, -4.22, 2.32, 1.59, 7.38, repro,
2006-07-04,-0.05, -0.60, -8.69, 2.58, 1.79, 8.21, repro,
2006-07-05,0.62, -0.26, -5.47, 2.71, 1.87, 8.59, repro,
2006-07-06,0.59, -0.74, -3.02, 2.49, 1.73, 8.03, repro,
2006-07-07,1.41, 0.14, -4.06, 2.33, 1.62, 7.47, repro,
2006-07-08,-0.14, -0.18, -3.63, 2.30, 1.59, 7.39, repro,
2006-07-09,0.80, -1.27, -0.84, 2.32, 1.59, 7.36, repro,
2006-07-10,0.18, -0.61, -1.98, 2.29, 1.59, 7.36, repro,
2006-07-11,-0.12, -1.08, 5.43, 2.40, 1.72, 7.86, repro,
2006-07-12,1.91, 0.77, -0.98, 2.68, 1.81, 8.39, repro,
2006-07-13,1.45, 0.11, 2.19, 2.37, 1.64, 7.64, repro,
2006-07-14,-0.66, 0.30, 8.16, 2.32, 1.59, 7.36, repro,
2006-07-15,0.74, -0.53, 2.23, 2.30, 1.59, 7.38, repro,
2006-07-17,1.48, -0.32, -1.72, 2.39, 1.67, 7.67, repro,
2006-07-18,0.17, 0.44, 0.44, 2.27, 1.57, 7.22, repro,
2006-07-19,0.32, -0.99, -1.01, 2.25, 1.54, 7.10, repro,
2006-07-20,1.47, 0.47, 0.88, 2.26, 1.56, 7.13, repro,
2006-07-21,1.44, 0.45, -0.44, 2.26, 1.56, 7.17, repro,
2006-07-22,0.53, 0.60, 2.56, 2.26, 1.55, 7.12, repro,
2006-07-23,2.11, -0.79, -1.25, 2.32, 1.58, 7.27, repro,
2006-07-24,0.91, -0.39, 2.00, 2.27, 1.56, 7.13, repro,
2006-07-25,0.71, -1.42, 2.01, 2.25, 1.55, 7.14, repro,
2006-07-26,-0.71, -0.84, 9.04, 2.24, 1.56, 7.10, repro,
2006-07-27,-0.07, 0.20, 3.62, 2.26, 1.56, 7.15, repro,
2006-07-28,1.11, -0.53, 1.42, 2.34, 1.61, 7.43, repro,
2006-07-29,1.18, -1.47, -0.71, 2.32, 1.59, 7.26, repro,
2006-07-30,0.18, -0.63, 6.50, 2.29, 1.59, 7.24, repro,
2006-07-31,0.24, -0.77, 7.26, 2.24, 1.55, 7.08, repro,
2006-08-01,1.43, -0.97, -0.72, 2.25, 1.58, 7.19, repro,
2006-08-02,0.46, -0.91, 7.52, 2.30, 1.63, 7.37, repro,
2006-08-03,1.57, -0.58, 2.04, 2.30, 1.61, 7.34, repro,
2006-08-04,0.63, -0.43, 0.86, 2.35, 1.63, 7.37, repro,
2006-08-05,-0.25, -1.38, 3.95, 2.28, 1.60, 7.24, repro,
2006-08-06,0.60, -1.03, 3.67, 2.29, 1.61, 7.33, repro,
2006-08-07,0.16, -0.26, 4.17, 2.28, 1.60, 7.27, repro,
2006-08-08,0.81, 0.86, 10.84, 2.26, 1.56, 7.16, repro,
2006-08-09,0.72, 0.74, 4.30, 2.28, 1.56, 7.20, repro,
2006-08-10,0.20, -0.88, 4.03, 2.26, 1.56, 7.15, repro,
2006-08-11,0.33, -0.26, 5.57, 2.23, 1.54, 7.02, repro,
2006-08-12,1.16, 0.44, 7.07, 2.24, 1.54, 7.04, repro,
2006-08-13,-0.46, 0.40, 5.49, 2.24, 1.56, 7.12, repro,
2006-08-14,0.56, -0.27, 3.16, 2.27, 1.56, 7.22, repro,
2006-08-15,-1.02, 0.03, 7.54, 2.33, 1.58, 7.24, repro,
2006-08-16,0.47, -0.29, 5.76, 2.24, 1.55, 7.11, repro,
2006-08-17,1.50, 0.17, 2.18, 2.21, 1.54, 6.99, repro,
2006-08-18,1.17, 0.57, 2.17, 2.28, 1.59, 7.25, repro,
2006-08-19,1.59, 0.64, 3.48, 2.24, 1.55, 7.12, repro,
2006-08-20,0.45, -0.10, 13.99, 2.24, 1.56, 7.08, repro,
2006-08-21,1.13, -0.32, 10.85, 2.27, 1.57, 7.15, repro,
2006-08-22,1.90, -0.54, 10.74, 2.24, 1.56, 7.06, repro,
2006-08-23,0.24, 0.11, 14.00, 2.26, 1.57, 7.15, repro,
2006-08-24,-0.14, 0.18, 10.20, 2.26, 1.59, 7.23, repro,
2006-08-25,0.21, 0.42, 10.76, 2.30, 1.60, 7.27, repro,
2006-08-26,0.74, 0.93, 8.76, 2.37, 1.66, 7.56, repro,
2006-08-27,0.87, -0.71, 10.89, 2.35, 1.66, 7.49, repro,
2006-08-28,-0.07, -0.71, 3.23, 2.33, 1.66, 7.50, repro,
2006-08-29,2.33, -0.48, 2.52, 2.35, 1.66, 7.56, repro,
2006-08-30,0.27, -0.92, 5.65, 2.39, 1.66, 7.56, repro,
2006-08-31,0.40, -0.19, 5.31, 2.34, 1.66, 7.50, repro,
2006-09-01,1.53, -0.30, -0.28, 2.35, 1.66, 7.48, repro,
2006-09-02,0.02, -0.06, 2.13, 2.34, 1.66, 7.52, repro,
2006-09-03,-0.19, -1.64, 7.90, 2.34, 1.67, 7.52, repro,
2006-09-04,2.64, -0.79, 4.79, 2.46, 1.70, 7.77, repro,
2006-09-05,1.25, -0.38, 0.37, 2.43, 1.68, 7.68, repro,
2006-09-06,1.45, -0.43, 8.55, 2.35, 1.67, 7.53, repro,
2006-09-07,0.93, -0.69, 11.14, 2.39, 1.70, 7.75, repro,
2006-09-08,0.02, -2.42, 13.87, 2.39, 1.69, 7.73, repro,
2006-09-09,-0.58, 0.33, 14.54, 2.39, 1.63, 7.45, repro,
2006-09-10,1.31, 0.57, 6.30, 2.34, 1.64, 7.41, repro,
2006-09-11,2.88, -0.29, 13.64, 2.31, 1.63, 7.38, repro,
2006-09-12,2.04, -0.90, 8.76, 2.36, 1.68, 7.51, repro,
2006-09-13,-0.20, 0.01, 7.63, 2.40, 1.67, 7.55, repro,
2006-09-14,0.88, -0.03, 7.77, 2.57, 1.81, 8.20, repro,
2006-09-15,2.70, -1.73, 12.58, 2.34, 1.60, 7.28, repro,
2006-09-16,1.63, -0.18, 11.08, 2.25, 1.57, 7.16, repro,
2006-09-17,2.70, -0.45, 11.31, 2.25, 1.57, 7.16, repro,
2006-09-18,0.89, -0.75, 18.22, 2.26, 1.59, 7.24, repro,
2006-09-19,0.48, -0.23, 12.67, 2.27, 1.56, 7.13, repro,
2006-09-20,1.21, -0.67, 11.62, 2.27, 1.58, 7.23, repro,
2006-09-21,1.01, -1.35, 12.21, 2.42, 1.65, 7.55, repro,
2006-09-22,1.09, 0.38, 6.62, 2.37, 1.67, 7.56, repro,
2006-09-23,0.54, -0.20, 6.93, 2.31, 1.62, 7.32, repro,
2006-09-24,1.66, -0.75, 5.55, 2.33, 1.61, 7.33, repro,
2006-09-25,1.40, -0.06, 9.52, 2.65, 1.81, 8.40, repro,
2006-09-26,1.07, -0.43, 1.10, 2.29, 1.59, 7.26, repro,
2006-09-27,0.83, -0.36, 3.58, 2.28, 1.59, 7.24, repro,
2006-09-28,1.44, -0.65, 10.66, 2.29, 1.60, 7.26, repro,
2006-09-29,0.02, 0.39, 14.80, 2.28, 1.59, 7.23, repro,
2006-09-30,0.71, 0.04, 12.03, 2.30, 1.62, 7.40, repro,
2006-10-01,0.39, -0.87, 6.86, 2.26, 1.59, 7.19, repro,
2006-10-02,-0.06, 0.08, 4.32, 2.34, 1.65, 7.39, repro,
2006-10-03,1.46, 0.14, 6.37, 2.39, 1.69, 7.68, repro,
2006-10-04,0.79, 0.70, 7.86, 2.29, 1.60, 7.29, repro,
2006-10-05,-0.28, 0.63, 10.97, 2.36, 1.65, 7.52, repro,
2006-10-06,1.64, 0.57, 11.32, 2.35, 1.59, 7.22, repro,
2006-10-07,-0.37, 0.60, -0.16, 2.38, 1.66, 7.55, repro,
2006-10-08,-0.23, 1.06, 8.06, 2.34, 1.63, 7.40, repro,
2006-10-09,0.32, 0.47, 2.63, 2.35, 1.63, 7.37, repro,
2006-10-10,1.99, -0.01, -0.25, 2.34, 1.63, 7.50, repro,
2006-10-11,-0.02, 0.33, 9.70, 2.35, 1.64, 7.51, repro,
2006-10-12,0.86, 0.71, 11.49, 2.65, 2.06, 8.88, repro,
2006-10-13,0.44, 0.40, 13.17, 2.26, 1.56, 7.17, repro,
2006-10-14,2.41, 0.13, 11.97, 2.29, 1.59, 7.43, repro,
2006-10-15,2.20, -1.09, 17.64, 2.38, 1.63, 7.54, repro,
2006-10-16,2.04, -0.50, 16.22, 2.26, 1.58, 7.32, repro,
2006-10-17,1.76, 0.57, 9.01, 2.39, 1.64, 7.74, repro,
2006-10-18,0.68, 1.14, 12.09, 2.22, 1.56, 7.10, repro,
2006-10-19,-0.64, -0.42, 11.79, 2.53, 1.71, 7.98, repro,
2006-10-20,0.70, -0.22, 4.67, 2.82, 2.01, 9.70, repro,
2006-10-21,1.36, 0.56, 0.42, 2.46, 1.68, 7.94, repro,
2006-10-22,0.95, 0.46, 2.21, 2.39, 1.64, 7.71, repro,
2006-10-23,0.09, -0.32, 5.45, 2.45, 1.72, 7.85, repro,
2006-10-24,2.08, -0.04, 11.40, 2.43, 1.72, 7.82, repro,
2006-10-25,1.72, 0.55, 6.44, 2.48, 1.67, 7.82, repro,
2006-10-26,1.10, -0.86, 13.25, 2.38, 1.64, 7.67, repro,
2006-10-27,2.03, -0.05, 8.27, 2.28, 1.63, 7.35, repro,
2006-10-28,-0.40, 1.17, 10.45, 2.44, 1.68, 7.73, repro,
2006-10-29,1.49, 0.02, 0.66, 2.25, 1.58, 7.29, repro,
2006-10-30,1.42, 1.33, 1.09, 2.22, 1.55, 7.08, repro,
2006-10-31,1.35, 1.34, 3.04, 2.33, 1.59, 7.43, repro,
2006-11-01,2.02, -0.28, 1.84, 2.56, 1.89, 8.51, repro,
2006-11-02,1.83, -0.81, 13.76, 2.23, 1.57, 7.24, repro,
2006-11-03,2.58, 0.35, 6.60, 2.25, 1.61, 7.29, repro,
2006-11-04,0.17, 0.53, 8.82, 2.35, 1.65, 7.49, repro,
2006-11-05,1.90, 0.15, 11.92, 2.41, 1.66, 7.62, repro,
2006-11-06,0.82, -0.22, 11.72, 2.21, 1.57, 7.17, repro,
2006-11-07,1.46, 1.17, 24.01, 2.53, 1.77, 7.86, repro,
2006-11-08,2.43, 0.37, 5.47, 2.33, 1.64, 7.36, repro,
2006-11-09,2.29, 1.44, 2.61, 2.42, 1.69, 7.61, repro,
2006-11-10,1.28, 0.40, 5.65, 2.30, 1.59, 7.23, repro,
2006-11-11,2.27, 0.47, 13.11, 2.37, 1.64, 7.47, repro,
2006-11-12,1.01, -0.44, 9.62, 2.36, 1.66, 7.37, repro,
2006-11-13,1.35, -1.81, 12.85, 2.39, 1.66, 7.50, repro,
2006-11-14,-0.56, -2.80, 13.33, 2.23, 1.56, 7.12, repro,
2006-11-15,0.55, -2.96, 6.58, 2.23, 1.57, 7.18, repro,
2006-11-16,2.65, -2.29, 8.24, 2.22, 1.56, 7.13, repro,
2006-11-17,0.32, -1.55, 7.74, 2.19, 1.57, 7.11, repro,
2006-11-18,2.29, -0.59, -0.70, 2.18, 1.56, 7.09, repro,
2006-11-19,-0.24, -3.72, 8.88, 2.41, 1.75, 7.83, repro,
2006-11-20,3.14, -0.58, 4.55, 2.26, 1.59, 7.26, repro,
2006-11-21,0.89, -3.15, 7.19, 2.21, 1.56, 7.11, repro,
2006-11-22,3.09, -2.53, 7.16, 2.18, 1.58, 7.11, repro,
2006-11-23,0.17, -0.93, 2.64, 2.22, 1.61, 7.22, repro,
2006-11-24,1.95, -1.05, -1.07, 2.24, 1.61, 7.28, repro,
2006-11-25,1.75, -2.84, -1.79, 2.26, 1.59, 7.24, repro,
2006-11-26,1.40, -1.31, 4.71, 2.22, 1.56, 7.12, repro,
2006-11-27,0.56, -1.63, 0.68, 2.32, 1.63, 7.42, repro,
2006-11-28,1.38, -1.50, -0.70, 2.20, 1.57, 7.09, repro,
2006-11-29,2.08, -1.26, -0.96, 2.21, 1.58, 7.17, repro,
2006-11-30,3.31, -1.35, 5.96, 2.28, 1.62, 7.50, repro,
2006-12-01,1.86, -0.42, -7.04, 2.21, 1.55, 7.06, repro,
2006-12-02,1.00, -0.42, -10.44, 2.21, 1.56, 7.11, repro,
2006-12-03,0.61, -0.62, -7.96, 2.23, 1.58, 7.20, repro,
2006-12-04,0.05, -0.53, -1.34, 2.25, 1.61, 7.26, repro,
2006-12-05,1.66, -1.12, 0.92, 2.24, 1.61, 7.29, repro,
2006-12-06,0.66, -1.42, 1.59, 2.31, 1.68, 7.50, repro,
2006-12-07,0.38, -1.55, 3.46, 2.27, 1.62, 7.39, repro,
2006-12-08,-1.71, -1.62, 12.18, 2.24, 1.64, 7.39, repro,
2006-12-09,0.13, -2.64, 13.74, 2.24, 1.64, 7.40, repro,
2006-12-10,-0.99, -1.38, 10.74, 2.27, 1.65, 7.41, repro,
2006-12-11,-0.11, -2.29, 13.01, 2.21, 1.58, 7.13, repro,
2006-12-12,-0.84, -1.04, 10.60, 2.38, 1.70, 7.67, repro,
2006-12-13,-0.13, -1.12, 11.69, 2.23, 1.60, 7.25, repro,
2006-12-14,1.02, -3.71, 10.53, 2.20, 1.59, 7.15, repro,
2006-12-15,0.08, -0.86, 7.67, 2.30, 1.68, 7.64, repro,
2006-12-16,3.29, 0.90, 8.59, 4.92, 3.94, 15.07, repro,
2007-01-20,2.38, 0.60, -2.77, 2.27, 1.61, 7.34, repro,
2007-01-21,3.30, -0.83, 3.62, 2.24, 1.60, 7.27, repro,
2007-01-22,2.24, -1.16, -0.89, 2.41, 1.69, 7.81, repro,
2007-01-23,4.03, -1.62, 8.67, 2.27, 1.62, 7.41, repro,
2007-01-24,2.03, -0.58, -2.87, 2.23, 1.60, 7.29, repro,
2007-01-25,2.19, -0.78, 0.82, 2.42, 1.69, 7.72, repro,
2007-01-26,2.92, 1.51, -11.93, 2.28, 1.61, 7.24, repro,
2007-01-27,2.44, 1.22, -13.91, 2.27, 1.58, 7.24, repro,
2007-01-28,3.34, -0.39, -11.85, 2.25, 1.59, 7.22, repro,
2007-01-29,3.24, 0.29, -9.69, 2.21, 1.57, 7.14, repro,
2007-01-30,1.36, -0.69, -10.87, 2.27, 1.59, 7.31, repro,
2007-01-31,2.71, 0.01, -3.03, 3.44, 2.56, 10.38, repro,
2007-02-01,3.28, 0.07, -7.22, 2.23, 1.60, 7.20, repro,
2007-02-02,3.39, -1.22, -2.38, 2.23, 1.57, 7.12, repro,
2007-02-03,1.36, -1.00, -6.08, 2.22, 1.57, 7.09, repro,
2007-02-04,2.75, 0.14, -0.42, 2.17, 1.55, 6.97, repro,
2007-02-05,2.70, -1.00, 0.06, 2.19, 1.55, 6.97, repro,
2007-02-06,3.11, -1.93, -2.66, 2.18, 1.55, 6.95, repro,
2007-02-07,1.70, -1.02, -5.34, 2.69, 2.08, 9.04, repro,
2007-02-08,1.02, -1.39, 3.28, 2.22, 1.61, 7.23, repro,
2007-02-09,5.14, -0.42, -3.11, 2.22, 1.61, 7.15, repro,
2007-02-10,2.66, -0.96, 3.62, 2.17, 1.55, 6.96, repro,
2007-02-11,3.20, -1.56, -1.55, 2.16, 1.55, 6.94, repro,
2007-02-12,3.73, -1.59, 0.80, 2.22, 1.57, 7.07, repro,
2007-02-13,4.94, -0.65, -6.24, 2.23, 1.56, 7.06, repro,
2007-02-14,3.61, -0.47, -1.46, 2.19, 1.56, 6.97, repro,
2007-02-15,3.12, -1.18, 9.28, 2.18, 1.55, 6.99, repro,
2007-02-16,2.29, -1.78, 3.56, 2.20, 1.58, 7.08, repro,
2007-02-17,3.59, -0.76, 3.95, 2.26, 1.61, 7.23, repro,
2007-02-18,3.13, -1.71, 7.26, 2.21, 1.56, 7.09, repro,
2007-02-19,2.51, -0.57, 12.97, 2.20, 1.55, 6.98, repro,
2007-02-20,2.28, -1.23, 13.56, 2.18, 1.57, 7.03, repro,
2007-02-21,5.30, -2.51, 6.65, 2.16, 1.55, 6.96, repro,
2007-02-22,3.37, -9.03, 15.78, 2.26, 1.58, 7.15, repro,
2007-02-23,4.75, -1.71, -2.66, 2.20, 1.56, 7.06, repro,
2007-02-24,4.25, -1.74, 1.73, 2.20, 1.55, 6.97, repro,
2007-02-25,4.07, -1.44, 2.11, 2.20, 1.55, 7.00, repro,
2007-02-26,3.73, -0.60, 2.98, 2.19, 1.55, 6.94, repro,
2007-02-27,3.72, -1.21, -0.55, 2.18, 1.55, 6.94, repro,
2007-02-28,4.17, -0.78, 6.06, 2.20, 1.55, 6.98, repro,
2007-03-01,4.19, 0.36, -1.89, 2.26, 1.59, 7.09, repro,
2007-03-02,2.22, -0.35, 2.90, 2.28, 1.62, 7.24, repro,
2007-03-03,2.88, -1.32, 1.79, 2.25, 1.61, 7.22, repro,
2007-03-04,3.97, -0.41, -0.98, 2.26, 1.60, 7.18, repro,
2007-03-05,3.18, -0.64, -1.69, 2.42, 1.97, 7.70, repro,
2007-03-06,2.68, 0.30, 2.00, 2.40, 1.97, 7.68, repro,
2007-03-07,1.47, -0.01, 10.11, 2.43, 2.30, 7.69, repro,
2007-03-08,1.80, -1.11, 7.82, 2.39, 1.85, 7.57, repro,
2007-03-09,5.18, 2.19, 2.16, 2.46, 1.86, 7.84, repro,
2007-03-10,2.91, 7.20, -1.79, 2.38, 1.96, 7.58, repro,
2007-03-11,2.66, -3.72, 6.53, 2.26, 1.71, 7.13, repro,
2007-03-12,2.98, -0.63, -0.69, 2.25, 1.58, 7.03, repro,
2007-03-13,2.95, -0.07, -4.28, 2.22, 1.56, 7.03, repro,
2007-03-14,2.88, -0.22, -3.95, 2.19, 1.55, 6.93, repro,
2007-03-15,3.80, 0.44, -13.23, 2.22, 1.57, 7.02, repro,
2007-03-16,5.24, -0.37, 3.07, 2.21, 1.57, 7.04, repro,
2007-03-17,3.64, -1.81, 2.10, 2.24, 1.57, 7.03, repro,
2007-03-18,2.08, -0.29, 4.69, 2.22, 1.56, 7.00, repro,
2007-03-19,3.60, -1.01, 6.22, 2.22, 1.55, 6.97, repro,
2007-03-20,2.62, 0.01, 6.47, 2.30, 1.58, 7.01, repro,
2007-03-21,4.43, 1.05, 5.25, 2.26, 1.57, 6.96, repro,
2007-03-22,4.25, 0.45, 2.60, 2.22, 1.55, 7.07, repro,
2007-03-23,2.51, -0.45, 3.76, 2.20, 1.56, 6.98, repro,
2007-03-24,0.76, -1.46, 7.93, 2.21, 1.55, 6.95, repro,
2007-03-25,2.56, 0.16, 6.14, 2.20, 1.54, 6.97, repro,
2007-03-26,2.70, 0.01, -12.32, 2.20, 1.54, 6.91, repro,
2007-03-27,2.65, -0.32, -8.71, 2.22, 1.57, 7.02, repro,
2007-03-28,3.47, 0.17, -7.68, 2.26, 1.57, 7.11, repro,
2007-03-29,3.03, 1.74, -1.89, 2.34, 1.74, 7.70, repro,
2007-03-30,3.16, 0.94, -7.22, 2.36, 2.18, 7.52, repro,
2007-04-02,3.98, -0.27, 5.04, 4.11, 3.03, 13.25, repro,
2007-04-03,3.02, -0.23, -15.46, 2.21, 1.54, 6.95, repro,
2007-04-04,3.02, -0.93, -10.30, 2.33, 1.65, 7.33, repro,
2007-04-05,3.22, -0.82, -5.76, 2.26, 1.71, 7.23, repro,
2007-04-06,3.11, 0.32, -11.16, 2.22, 1.58, 7.04, repro,
2007-04-07,3.36, 0.44, 3.27, 2.20, 1.55, 6.95, repro,
2007-04-08,3.31, -1.28, 3.30, 2.19, 1.54, 6.88, repro,
2007-04-09,2.62, -0.70, 1.75, 2.21, 1.54, 6.95, repro,
2007-04-10,3.13, -0.33, 2.25, 2.25, 1.57, 7.07, repro,
2007-04-11,4.15, 0.25, 2.44, 2.18, 1.54, 6.86, repro,
2007-04-12,2.69, -1.16, -0.54, 2.19, 1.54, 6.93, repro,
2007-04-13,3.53, 0.07, 4.61, 2.21, 1.54, 6.94, repro,
2007-04-14,5.02, -0.52, 6.42, 2.26, 1.55, 7.07, repro,
2007-04-15,3.62, 1.28, 1.19, 2.24, 1.57, 7.13, repro,
2007-04-16,4.12, -1.11, 2.84, 2.20, 1.54, 6.94, repro,
2007-04-17,4.48, -1.29, 3.00, 2.19, 1.54, 6.88, repro,
2007-04-18,4.39, -0.85, -2.82, 2.19, 1.53, 6.89, repro,
2007-04-19,4.75, -0.37, -9.86, 2.22, 1.54, 6.98, repro,
2007-04-20,2.78, -0.76, -9.37, 2.22, 1.53, 6.94, repro,
2007-05-04,6.39, 1.68, -9.55, 2.28, 1.60, 7.21, repro,
2007-05-05,5.92, 1.35, -8.18, 2.33, 1.61, 7.39, repro,
2007-05-06,5.67, 1.76, -1.16, 2.31, 1.59, 7.29, repro,
2007-05-07,6.70, 0.49, -5.98, 2.25, 1.59, 7.13, repro,
2007-05-08,6.53, 1.25, -4.00, 2.24, 1.55, 7.07, repro,
2007-05-09,7.35, 0.68, -7.84, 2.27, 1.55, 7.10, repro,
2007-05-10,6.23, 1.84, -12.03, 2.34, 1.62, 7.48, repro,
2007-05-11,6.29, 1.54, -15.82, 2.34, 1.62, 7.46, repro,
2007-05-12,6.60, 1.18, -10.29, 2.29, 1.57, 7.26, repro,
2007-05-13,6.58, 0.87, -11.07, 2.25, 1.56, 7.15, repro,
2007-05-14,8.03, 1.67, -11.68, 2.26, 1.58, 7.20, repro,
2007-05-15,6.91, 1.36, -12.34, 2.32, 1.59, 7.31, repro,
2007-05-16,6.97, 1.12, -12.14, 2.27, 1.55, 7.13, repro,
2007-05-17,7.23, 1.08, -6.89, 2.33, 1.58, 7.31, repro,
2007-05-18,6.10, 0.56, -8.11, 2.37, 1.65, 7.52, repro,
2007-05-19,7.21, -0.32, -2.93, 2.27, 1.59, 7.24, repro,
2007-05-20,6.10, 1.26, -5.60, 2.28, 1.57, 7.21, repro,
2007-05-21,7.25, 1.55, -10.54, 2.23, 1.54, 7.03, repro,
2007-05-22,6.59, 1.63, -11.68, 2.29, 1.57, 7.14, repro,
2007-05-23,6.06, 0.76, -9.75, 2.25, 1.55, 7.11, repro,
2007-05-24,6.78, 0.93, -10.64, 2.33, 1.61, 7.28, repro,
2007-05-25,7.89, 1.11, -13.16, 2.25, 1.54, 7.05, repro,
2007-05-26,6.51, 0.80, -7.26, 2.26, 1.54, 7.08, repro,
2007-05-27,6.02, 0.57, -8.02, 2.23, 1.54, 7.02, repro,
2007-05-28,6.91, 1.23, -10.06, 2.24, 1.53, 7.00, repro,
2007-05-29,6.85, 1.33, -10.30, 2.24, 1.55, 7.10, repro,
2007-05-30,5.95, 0.83, -8.65, 2.31, 1.56, 7.14, repro,
2007-05-31,5.06, 1.60, -8.03, 2.24, 1.55, 7.02, repro,
2007-06-01,5.82, 1.57, -7.90, 2.26, 1.55, 7.07, repro,
2007-06-02,5.90, 1.78, -10.12, 2.22, 1.54, 6.95, repro,
2007-06-03,6.69, 0.66, -10.66, 2.25, 1.55, 7.07, repro,
2007-06-04,6.38, 0.63, -5.51, 2.32, 1.63, 7.41, repro,
2007-06-05,5.78, 0.84, 6.78, 2.29, 1.56, 7.14, repro,
2007-06-06,4.84, 1.17, 6.84, 2.26, 1.53, 7.04, repro,
2007-06-07,5.49, 0.65, -2.86, 2.27, 1.56, 7.05, repro,
2007-06-08,6.60, 1.47, -3.55, 2.22, 1.55, 6.98, repro,
2007-06-09,6.14, 0.60, -6.49, 2.23, 1.53, 6.93, repro,
2007-06-10,7.53, 1.41, -5.00, 2.25, 1.54, 6.98, repro,
2007-06-11,6.85, 0.87, -6.08, 2.27, 1.58, 7.11, repro,
2007-06-12,5.55, 1.19, -3.94, 2.26, 1.56, 7.09, repro,
2007-06-13,6.13, 1.09, -1.81, 2.21, 1.54, 6.96, repro,
2007-06-14,6.65, 0.57, -9.47, 2.28, 1.57, 7.06, repro,
2007-06-15,8.10, 0.67, -6.52, 2.25, 1.54, 7.06, repro,
2007-06-16,7.41, 0.91, -10.06, 2.23, 1.54, 6.96, repro,
2007-06-17,6.26, 1.02, -9.31, 2.23, 1.52, 6.93, repro,
2007-06-18,6.33, 2.61, -3.61, 2.25, 1.55, 7.02, repro,
2007-06-19,6.44, 1.41, -6.39, 2.23, 1.54, 6.99, repro,
2007-06-20,6.46, 0.83, -6.36, 2.24, 1.54, 7.01, repro,
2007-06-21,6.58, 1.73, 0.31, 2.27, 1.56, 7.09, repro,
2007-06-22,6.40, 0.99, -7.09, 2.24, 1.53, 6.94, repro,
2007-06-23,7.69, 1.36, -2.56, 2.26, 1.54, 7.02, repro,
2007-06-24,5.47, 2.31, -2.64, 2.28, 1.58, 7.18, repro,
2007-06-25,6.86, 1.52, -9.87, 2.24, 1.54, 6.99, repro,
2007-06-26,6.79, 1.03, -9.74, 2.24, 1.55, 7.01, repro,
2007-06-27,6.54, 1.08, -14.22, 2.27, 1.56, 7.10, repro,
2007-06-28,8.74, 0.88, -7.00, 2.26, 1.55, 7.07, repro,
2007-06-29,6.36, 1.25, -3.26, 2.23, 1.54, 7.01, repro,
2007-06-30,7.00, 1.63, -6.15, 2.27, 1.57, 7.12, repro,
2007-07-01,6.56, 0.35, -5.22, 2.25, 1.54, 7.04, repro,
2007-07-02,6.77, 0.41, -0.93, 2.27, 1.57, 7.12, repro,
2007-07-03,4.15, 1.30, -1.19, 2.24, 1.55, 7.09, repro,
2007-07-04,7.46, 1.42, -4.63, 2.25, 1.54, 7.06, repro,
2007-07-05,8.02, 2.27, -7.99, 2.23, 1.53, 6.93, repro,
2007-07-06,7.65, 0.30, -6.59, 2.28, 1.54, 7.02, repro,
2007-07-07,7.27, 1.00, -9.14, 2.25, 1.54, 6.99, repro,
2007-07-08,5.20, 1.03, -3.79, 2.27, 1.56, 7.18, repro,
2007-07-09,6.86, 1.77, -9.27, 2.25, 1.54, 7.02, repro,
2007-07-10,5.97, 1.63, -6.52, 2.25, 1.55, 7.07, repro,
2007-07-11,8.09, 0.79, -4.13, 2.29, 1.57, 7.22, repro,
2007-07-12,7.51, 1.52, -2.13, 2.31, 1.57, 7.22, repro,
2007-07-13,7.94, 1.41, -2.91, 2.27, 1.61, 7.21, repro,
2007-07-14,6.36, 0.67, -6.93, 2.30, 1.60, 7.36, repro,
2007-07-15,4.65, 0.34, 2.22, 2.33, 1.58, 7.27, repro,
2007-07-16,5.74, 0.13, -8.39, 2.25, 1.56, 7.07, repro,
2007-07-17,5.54, 0.20, -2.53, 2.26, 1.56, 7.08, repro,
2007-07-18,5.79, 0.11, -4.50, 2.26, 1.56, 7.09, repro,
2007-07-19,4.94, 1.22, 7.87, 2.23, 1.54, 6.98, repro,
2007-07-20,4.82, -0.10, 5.60, 2.28, 1.55, 7.10, repro,
2007-07-21,6.85, 0.56, 6.61, 2.27, 1.54, 7.04, repro,
2007-07-22,6.31, 0.56, 5.43, 2.27, 1.54, 7.00, repro,
2007-07-23,6.23, 1.42, 6.13, 2.27, 1.55, 6.99, repro,
2007-07-24,7.30, 1.54, 0.28, 2.25, 1.53, 6.99, repro,
2007-07-25,5.89, 1.46, 2.70, 2.25, 1.54, 7.03, repro,
2007-07-26,7.10, 1.17, -5.83, 2.27, 1.56, 7.08, repro,
2007-07-27,6.00, 0.59, -0.23, 2.23, 1.53, 6.91, repro,
2007-07-28,6.57, 1.20, 0.80, 2.24, 1.55, 6.98, repro,
2007-07-29,5.54, 0.71, 6.80, 2.24, 1.53, 6.96, repro,
2007-07-30,5.77, 1.06, -3.49, 2.27, 1.53, 7.03, repro,
2007-07-31,7.97, 1.54, 2.49, 2.25, 1.54, 7.01, repro,
2007-08-01,6.41, 1.03, 3.82, 2.27, 1.55, 7.03, repro,
2007-08-02,5.68, 1.03, 3.87, 2.25, 1.53, 6.98, repro,
2007-08-03,5.93, 1.00, -1.33, 2.25, 1.53, 7.02, repro,
2007-08-04,6.73, 0.89, 3.52, 2.26, 1.52, 6.98, repro,
2007-08-05,6.06, 0.72, 3.35, 2.26, 1.54, 7.05, repro,
2007-08-06,4.74, 0.36, 5.16, 2.30, 1.59, 7.18, repro,
2007-08-07,4.29, 1.90, 5.73, 2.30, 1.58, 7.12, repro,
2007-08-08,5.59, 0.50, -0.37, 2.25, 1.55, 7.06, repro,
2007-08-09,5.92, 0.41, 2.68, 2.27, 1.55, 7.10, repro,
2007-08-10,4.90, 0.41, -0.58, 2.26, 1.53, 6.97, repro,
2007-08-11,6.07, 1.43, 0.53, 2.28, 1.54, 7.00, repro,
2007-08-12,6.36, -0.08, 5.99, 2.25, 1.55, 7.02, repro,
2007-08-13,6.51, 1.20, -4.76, 2.27, 1.54, 7.06, repro,
2007-08-14,6.09, 1.08, -3.54, 2.40, 1.67, 7.55, repro,
2007-08-15,4.82, 0.84, -3.27, 2.41, 1.68, 7.58, repro,
2007-08-16,6.73, 0.70, 10.56, 2.40, 1.67, 7.54, repro,
2007-08-17,6.14, 1.20, 3.57, 2.36, 1.62, 7.31, repro,
2007-08-18,7.15, 0.78, 5.65, 2.40, 1.64, 7.44, repro,
2007-08-19,6.31, 0.28, 4.35, 2.41, 1.65, 7.46, repro,
2007-08-20,5.16, 0.45, 8.00, 2.35, 1.59, 7.19, repro,
2007-08-21,6.55, 0.39, 7.23, 2.37, 1.60, 7.28, repro,
2007-08-22,5.42, 0.91, 4.43, 2.38, 1.59, 7.27, repro,
2007-08-23,6.60, 1.51, 9.27, 2.30, 1.56, 7.11, repro,
2007-08-24,7.16, 0.16, 10.40, 2.45, 1.65, 7.51, repro,
2007-08-25,6.17, -0.07, 3.63, 2.36, 1.62, 7.37, repro,
2007-08-26,7.52, 1.23, 1.42, 2.42, 1.66, 7.57, repro,
2007-08-27,7.18, 0.83, 0.86, 2.43, 1.66, 7.58, repro,
2007-08-28,6.35, 0.92, -0.95, 2.37, 1.62, 7.38, repro,
2007-08-29,7.35, -0.13, -2.47, 2.35, 1.61, 7.31, repro,
2007-08-30,5.30, 0.37, -1.62, 2.34, 1.61, 7.33, repro,
2007-08-31,5.59, 0.67, 1.29, 2.39, 1.64, 7.43, repro,
2007-09-01,5.79, 0.12, 0.23, 2.35, 1.61, 7.28, repro,
2007-09-02,4.20, -0.07, 4.73, 2.38, 1.62, 7.39, repro,
2007-09-03,5.22, 0.22, 5.35, 2.35, 1.63, 7.35, repro,
2007-09-04,6.98, 0.30, 5.19, 2.47, 1.65, 7.43, repro,
2007-09-05,6.89, 0.67, 8.79, 2.39, 1.65, 7.51, repro,
2007-09-06,5.23, 1.01, 4.61, 2.37, 1.63, 7.40, repro,
2007-09-07,6.33, 0.07, 6.29, 2.37, 1.62, 7.36, repro,
2007-09-08,6.26, 1.71, 5.64, 2.40, 1.66, 7.45, repro,
2007-09-09,7.28, 0.47, 1.01, 2.45, 1.70, 7.71, repro,
2007-09-10,4.73, 0.32, 1.52, 2.38, 1.65, 7.50, repro,
2007-09-11,6.07, 0.83, 3.00, 2.41, 1.63, 7.43, repro,
2007-09-12,6.49, 0.01, 6.10, 2.37, 1.62, 7.36, repro,
2007-09-13,6.46, 0.23, 4.99, 2.37, 1.63, 7.41, repro,
2007-09-14,5.58, 1.42, 6.15, 2.39, 1.65, 7.56, repro,
2007-09-15,5.33, 1.18, 3.16, 2.44, 1.64, 7.59, repro,
2007-09-16,4.62, 0.51, 8.92, 2.43, 1.67, 7.58, repro,
2007-09-17,6.44, 0.91, 6.56, 2.42, 1.66, 7.63, repro,
2007-09-18,5.72, 0.56, 3.21, 2.37, 1.68, 7.45, repro,
2007-09-19,4.56, 1.85, 5.07, 2.24, 1.53, 6.96, repro,
2007-09-20,5.41, 2.03, 8.47, 2.26, 1.55, 7.09, repro,